Pearl, MS

8:48 PM CDT on August 29, 2016 (GMT -0500)
Jackson-Evers International

Weather History for KJAN - January, 2015

Change the Weather History Date:

Tuesday, January 27, 2015

  Actual Average Record
Temperature  
Mean Temperature 52 °F 46 °F  
Max Temperature 69 °F 57 °F 80 °F (1975)
Min Temperature 35 °F 36 °F -5 °F (1940)
Degree Days  
Heating Degree Days 13 19  
Month to date heating degree days 555 532  
Since 1 July heating degree days 1483 1482  
Cooling Degree Days 0 0  
Month to date cooling degree days 0 0  
Year to date cooling degree days 0 0  
Growing Degree Days 2 (Base 50)    
Moisture  
Dew Point 34 °F    
Average Humidity 56    
Maximum Humidity 89    
Minimum Humidity 22    
Precipitation  
Precipitation 0.00 in 0.18 in 4.72 in (1994)
Month to date precipitation 4.72 4.25  
Year to date precipitation 4.72 4.25  
Sea Level Pressure  
Sea Level Pressure 30.10 in    
Wind  
Wind Speed 7 mph (NNW)    
Max Wind Speed 17 mph    
Max Gust Speed 23 mph    
Visibility 10 miles    
Events      
T = Trace of Precipitation, MM = Missing Value Source: NWS Daily Summary

Daily Weather History Graph

Daily Weather History Graph

Search for Another Location

Airport or City:

Trip Planner

Search our weather history database for the weather conditions in past years. The results will help you decide how hot, cold, wet, or windy it might be!

Date:

Astronomy

Jan. 27, 2015 Rise Set
Actual Time 6:57 AM CST 5:28 PM CST
Civil Twilight 6:31 AM CST 5:54 PM CST
Nautical Twilight 6:01 AM CST 6:24 PM CST
Astronomical Twilight 5:32 AM CST 6:53 PM CST
Moon 11:48 AM CST (1/27) 12:30 AM CST (1/27)
Length of Visible Light 11h 23m
Length of Day
10h 31m
First Quarter, 56% of the Moon is Illuminated
Jan 27
First Quarter
Feb 3
Full
Feb 11
Last Quarter
Feb 18
New
Feb 25
First Quarter

Hourly Weather History & Observations

Time (CST) Temp. Windchill Dew Point Humidity Pressure Visibility Wind Dir Wind Speed Gust Speed Precip Events Conditions
12:54 AM 43.0 °F 39.5 °F 34.0 °F 71% 30.02 in 10.0 mi SSW 5.8 mph - N/A   Clear
1:54 AM 44.1 °F 41.5 °F 34.0 °F 68% 30.01 in 10.0 mi SW 4.6 mph - N/A   Clear
2:54 AM 45.0 °F 43.5 °F 33.1 °F 63% 30.01 in 10.0 mi WSW 3.5 mph - N/A   Clear
3:54 AM 46.0 °F - 34.0 °F 63% 30.01 in 10.0 mi Calm Calm - N/A   Clear
4:54 AM 39.0 °F - 32.0 °F 76% 30.03 in 10.0 mi Calm Calm - N/A   Clear
5:54 AM 42.1 °F - 34.0 °F 73% 30.04 in 10.0 mi Calm Calm - N/A   Clear
6:54 AM 36.0 °F - 32.0 °F 86% 30.07 in 10.0 mi Calm Calm - N/A   Clear
7:54 AM 42.1 °F - 37.9 °F 85% 30.09 in 10.0 mi Calm Calm - N/A   Clear
8:54 AM 53.1 °F - 37.9 °F 57% 30.11 in 10.0 mi NNW 6.9 mph - N/A   Clear
9:54 AM 59.0 °F - 37.0 °F 44% 30.13 in 10.0 mi NNW 9.2 mph - N/A   Clear
10:54 AM 62.1 °F - 36.0 °F 38% 30.13 in 10.0 mi NNW 15.0 mph - N/A   Clear
11:54 AM 64.0 °F - 33.1 °F 31% 30.11 in 10.0 mi NNW 12.7 mph 21.9 mph N/A   Clear
12:54 PM 66.9 °F - 30.9 °F 26% 30.08 in 10.0 mi North 13.8 mph - N/A   Clear
1:54 PM 68.0 °F - 28.0 °F 22% 30.07 in 10.0 mi NNW 11.5 mph 23.0 mph N/A   Clear
2:54 PM 68.0 °F - 28.9 °F 23% 30.07 in 10.0 mi NW 11.5 mph - N/A   Clear
3:54 PM 66.0 °F - 33.1 °F 29% 30.08 in 10.0 mi NW 11.5 mph - N/A   Clear
4:54 PM 64.0 °F - 30.9 °F 29% 30.09 in 10.0 mi WNW 10.4 mph - N/A   Clear
5:54 PM 60.1 °F - 33.1 °F 36% 30.12 in 10.0 mi NW 10.4 mph - N/A   Clear
6:54 PM 53.1 °F - 35.1 °F 50% 30.15 in 10.0 mi NNW 4.6 mph - N/A   Clear
7:54 PM 48.9 °F - 37.0 °F 64% 30.17 in 10.0 mi NNE 5.8 mph - N/A   Clear
8:54 PM 46.9 °F - 37.0 °F 68% 30.18 in 10.0 mi North 3.5 mph - N/A   Clear
9:54 PM 46.9 °F - 37.0 °F 68% 30.19 in 10.0 mi NNE 5.8 mph - N/A   Clear
10:54 PM 46.9 °F - 37.9 °F 71% 30.19 in 10.0 mi NE 6.9 mph - N/A   Clear
11:54 PM 48.0 °F - 37.0 °F 66% 30.19 in 10.0 mi NE 10.4 mph - N/A   Clear